Location: Chislet
(51.3333°N, 1.2000°E)
Time: 01:15:35
(UTC+00:00)

Daily predictions for brighter satellites

Satellite Brightness Start Highest point End
(mag) Time Altitude Azimuth Time Altitude Azimuth Time Altitude Azimuth
Lacrosse 5 4.0 00:02:19 10° WSW 00:03:12 10° WSW 00:03:12 10° WSW
ATLAS CENTAUR R/B 2.8 00:01:28 10° NW 00:03:17 28° NNE 00:06:04 10° E
STARLINK-1226 3.1 00:00:29 10° WNW 00:03:35 69° N 00:06:42 10° E
STARLINK-1215 3.1 00:01:25 10° WNW 00:04:33 70° N 00:07:39 10° E
STARLINK-1225 3.6 00:00:37 10° WSW 00:04:47 87° NNW 00:08:57 10° ENE
Cosmos 292 Rocket 3.8 00:03:39 30° SSW 00:06:05 83° WNW 00:10:59 10° NNE
STARLINK-1217 3.1 00:03:11 10° WNW 00:06:19 70° NNE 00:09:25 10° E
STARLINK-1229 3.1 00:04:06 10° WNW 00:07:14 71° N 00:10:21 10° E
STARLINK-1271 3.9 00:03:28 10° W 00:07:37 68° N 00:11:46 10° E
STARLINK-1104 4.1 00:04:05 10° WNW 00:07:56 38° SW 00:08:13 38° SSW
STARLINK-1270 3.1 00:04:58 10° WNW 00:08:06 71° N 00:11:13 10° E
S3M 4.3 00:03:17 10° NNW 00:09:13 54° W 00:12:36 26° SSW
STARLINK-1230 3.6 00:05:36 10° WSW 00:09:45 84° NNW 00:13:55 10° ENE
Cosmos 1726 2.3 00:06:16 10° NNW 00:09:55 57° W 00:10:54 41° SSW
STARLINK-1189 3.0 00:06:49 10° WNW 00:09:56 72° N 00:13:04 10° E
STARLINK-1188 3.0 00:07:41 10° WNW 00:10:49 72° N 00:13:57 10° E
Cosmos 2058 Rocket 4.2 00:06:50 10° N 00:10:58 38° ENE 00:13:45 18° SE
Cosmos 1655 Rocket 4.1 00:07:30 25° SSW 00:11:14 69° WNW 00:17:30 10° N
STARLINK-1235 2.9 00:08:23 10° WNW 00:11:30 79° NNE 00:14:36 10° E
STARLINK-1187 2.9 00:08:49 10° WNW 00:11:55 76° NNE 00:15:01 10° E
GEOS 3 Rocket 3.6 00:07:39 15° SE 00:12:00 88° NE 00:17:21 10° NW
STARLINK-1154 3.9 00:08:28 10° W 00:12:37 69° N 00:16:45 10° E
Meteor 1-29 4.2 00:09:40 10° NNE 00:12:43 30° E 00:13:32 26° SE
SL-27 R/B 4.0 00:09:51 10° NW 00:12:45 23° WSW 00:13:10 22° WSW
STARLINK-1144 4.2 00:09:05 10° W 00:12:54 36° SW 00:13:00 36° SSW
STARLINK-1191 3.0 00:10:11 10° WNW 00:13:17 73° NNE 00:16:23 10° E
Cosmos 2228 3.1 00:09:20 10° N 00:13:36 69° ENE 00:15:31 31° SSE
SJ 16-02 4.1 00:11:27 10° N 00:14:00 15° NE 00:16:33 10° E
STARLINK-1221 3.0 00:11:03 10° WNW 00:14:09 74° NNE 00:17:16 10° E
COSMOS 2455 3.6 00:11:39 25° SSE 00:14:20 37° ESE 00:19:48 10° NE
STARLINK-1243 3.6 00:10:35 10° WSW 00:14:44 82° NNW 00:18:54 10° ENE
STARLINK-1222 3.0 00:11:56 10° WNW 00:15:03 74° NNE 00:18:09 10° E
Cosmos 2263 4.1 00:12:25 27° SSW 00:15:33 85° ESE 00:21:12 10° NNE
STARLINK-1214 3.0 00:12:51 10° WNW 00:15:58 75° NNE 00:19:03 10° E
Meteor 2-15 Rocket 4.4 00:11:03 10° N 00:17:15 88° W 00:20:55 26° S
STARLINK-1197 3.9 00:13:27 10° W 00:17:35 69° N 00:21:44 10° E
STARLINK-1103 4.3 00:14:06 10° W 00:17:46 34° SW 00:17:46 34° SW
Cosmos 1953 2.9 00:14:22 10° NNW 00:18:12 43° W 00:19:26 32° SW
STARLINK-1236 3.7 00:15:34 10° W 00:19:43 80° NNW 00:23:53 10° ENE
Cosmos 1340 Rocket 3.1 00:15:52 10° NNW 00:19:49 55° W 00:21:08 36° SSW
STARLINK-1198 3.9 00:18:24 10° W 00:22:33 70° N 00:26:42 10° E
Cosmos 1300 4.1 00:19:17 10° N 00:22:46 32° ENE 00:25:04 17° SE
STARLINK-1101 4.4 00:19:06 10° W 00:22:33 31° SW 00:22:33 31° SW
Cosmos 1271 Rocket 3.9 00:21:40 23° WSW 00:23:23 34° WNW 00:26:59 10° N
BREEZE M DEB (TANK) 4.2 00:26:49 14° ESE 00:26:49 14° ESE 00:27:24 10° ESE
COSMOS 2487 2.3 00:22:52 10° NNW 00:26:21 79° WSW 00:27:18 45° S
Cosmos 1833 4.5 00:21:36 10° NW 00:27:04 52° WSW 00:29:45 28° S
STARLINK-1199 3.9 00:23:26 10° W 00:27:35 71° N 00:31:44 10° E
Cosmos 1992 Rocket 4.0 00:25:15 28° SSW 00:28:04 83° WNW 00:33:19 10° NNE
STARLINK-1269 3.7 00:25:31 10° W 00:29:41 76° N 00:33:50 10° ENE
Cosmos 1707 4.0 00:29:05 22° WSW 00:30:50 32° WNW 00:34:24 10° N
STARLINK-1210 3.8 00:28:24 10° WNW 00:32:33 72° N 00:36:42 10° E
STARLINK-1200 3.8 00:30:32 10° W 00:34:41 75° N 00:38:51 10° ENE
Cosmos 1626 3.2 00:34:31 25° SE 00:35:59 35° E 00:39:26 10° NNE
Cosmos 1606 Rocket 3.5 00:32:41 10° NNW 00:37:00 69° W 00:38:48 33° S
Cosmos 1656 Rocket 3.6 00:33:52 27° SSW 00:37:06 88° ESE 00:42:44 10° NNE
STARLINK-1219 3.8 00:33:23 10° WNW 00:37:32 73° N 00:41:42 10° E
In-Cosmos 22 4.3 00:35:37 26° SSW 00:38:34 63° WNW 00:43:50 10° N
STARLINK-1192 3.8 00:35:31 10° W 00:39:40 73° N 00:43:50 10° ENE
FALCON 9 R/B 4.0 00:38:25 22° S 00:40:36 25° SSE 00:52:39 10° ESE
STARLINK-1211 3.8 00:38:21 10° WNW 00:42:31 74° N 00:46:40 10° E
CZ-4 R/B 3.9 00:38:02 10° NNE 00:42:54 78° WNW 00:45:23 29° SSW
STARLINK-1244 3.8 00:40:30 10° W 00:44:39 72° N 00:48:48 10° ENE
Cosmos 2297 Rocket 3.5 00:41:17 10° NNW 00:46:37 39° NE 00:51:54 10° ESE
ERBS 4.3 00:44:29 10° WNW 00:47:29 30° N 00:50:29 10° ENE
STARLINK-1245 3.8 00:43:22 10° WNW 00:47:31 75° N 00:51:41 10° E
Cosmos 2292 Rocket 4.3 00:45:34 24° SW 00:47:34 38° WNW 00:50:59 10° N
MOZ.5/SAFIR/RUBIN 5/SL-8 4.5 00:44:15 14° SE 00:48:00 50° ENE 00:52:29 10° N
STARLINK-1138 3.9 00:45:30 10° W 00:49:38 71° N 00:53:47 10° ENE
SL-4 R/B 3.1 00:49:12 29° S 00:50:32 34° SE 00:54:50 10° E
NOSS 5 (C) 4.3 00:48:16 10° NW 00:51:22 74° SW 00:53:30 23° SE
PSLV R/B 3.8 00:46:56 10° N 00:51:34 71° WNW 00:53:53 28° SSW
STARLINK-1203 3.9 00:48:05 10° W 00:52:17 71° N 00:56:30 10° E
STARLINK-1233 3.7 00:48:20 10° WNW 00:52:30 77° N 00:56:39 10° E
Cosmos 1437 4.2 00:52:48 22° SE 00:53:47 26° E 00:56:23 10° NE
Aureole 3 4.4 00:51:06 10° NNW 00:54:12 24° W 00:55:01 22° WSW
STARLINK-1143 3.9 00:50:29 10° W 00:54:38 70° N 00:58:47 10° E
Cosmos 1674 3.0 00:53:21 32° SW 00:54:47 53° WNW 00:58:30 10° N
SL-19 R/B 4.4 00:51:16 10° NNE 00:56:37 66° ESE 01:00:03 24° S
STARLINK-1204 3.7 00:53:20 10° WNW 00:57:30 79° NNE 01:01:39 10° E
Cosmos 1777 Rocket 3.9 00:53:12 10° NNW 00:58:26 74° WSW 01:01:54 22° SSE
Timation 2 Rocket 3.9 00:52:13 10° NNW 00:58:41 85° WSW 01:04:30 12° SSE
ATLAS CENTAUR R/B 1.8 00:56:56 30° S 00:58:43 50° SE 01:02:43 10° NE
STARLINK-1241 3.9 00:55:28 10° W 00:59:37 69° N 01:03:46 10° E
BREEZE-M R/B 4.5 01:01:07 21° SSE 01:01:11 21° SSE 01:03:55 10° ESE
NOSS 3-4 (A) 3.4 00:57:31 22° SW 01:01:32 83° SE 01:08:01 10° NE
NOSS 3-4 (C) 3.4 00:57:37 22° SW 01:01:38 82° SE 01:08:07 10° NE
SL-16 R/B 2.9 00:56:06 10° SSE 01:02:10 65° ENE 01:08:17 10° NNW
STARLINK-1238 3.7 00:58:17 10° WNW 01:02:27 81° NNE 01:06:37 10° E
Spot 1 4.3 01:00:54 25° S 01:03:35 74° WSW 01:08:29 10° NNW
STARLINK-1239 3.9 01:00:27 10° W 01:04:35 69° N 01:08:45 10° E
Cosmos 1455 4.4 01:02:05 10° NNE 01:05:04 22° ENE 01:08:03 10° ESE
ATLAS 3B R/B 2.7 00:59:09 10° NW 01:05:49 61° SW 01:12:41 10° SSE
STARLINK-1201 3.6 01:03:17 10° WNW 01:07:27 83° NNE 01:11:37 10° ESE
CENTAUR R/B 3.7 01:02:05 10° NW 01:09:23 38° WSW 01:14:47 19° S
STARLINK-1240 3.9 01:05:28 10° W 01:09:36 69° N 01:13:45 10° E
BREEZE-M DEB (TANK) 2.1 01:12:38 32° SSE 01:12:38 32° SSE 01:14:32 10° E
STARLINK-1206 3.6 01:08:16 10° WNW 01:12:26 85° NNE 01:16:36 10° ESE
Cosmos 1867 4.2 01:09:12 10° NW 01:14:10 36° WSW 01:16:44 24° SSW
STARLINK-1216 3.9 01:10:27 10° W 01:14:35 68° N 01:18:44 10° E
Meteor 2-21 Rocket 4.4 01:11:40 22° S 01:15:48 90° SE 01:22:02 10° N
Cosmos 1892 Rocket 3.8 01:14:51 26° SSW 01:17:11 61° WNW 01:21:33 10° N
Cosmos 1745 Rocket 4.2 01:12:45 18° S 01:17:19 66° E 01:23:24 10° NNE
STARLINK-1205 3.6 01:13:15 10° WNW 01:17:26 88° NNE 01:21:35 10° ESE
STARLINK-1237 3.9 01:15:26 10° W 01:19:35 68° N 01:23:44 10° E
RESURS DK-1 2.7 01:19:17 26° S 01:21:22 53° ESE 01:25:25 10° NE
STARLINK-1218 3.5 01:18:13 10° WNW 01:22:23 89° S 01:26:33 10° ESE
Cosmos 2227 Rocket 2.9 01:16:46 10° NNW 01:22:24 57° NE 01:27:59 10° SE
Cosmos 1356 Rocket 3.4 01:18:45 10° NNW 01:22:54 86° ENE 01:25:49 19° SSE
STARLINK-1202 3.9 01:20:26 10° W 01:24:35 68° N 01:28:44 10° E
Meteor 1-24 Rocket 3.6 01:22:03 23° SSW 01:25:26 74° WNW 01:30:53 10° N
CZ-2D R/B 2.6 01:21:08 10° NNE 01:26:19 53° E 01:30:15 17° S
Cosmos 2369 Rocket 3.7 01:21:29 10° WSW 01:26:26 30° NW 01:31:24 10° NNE
Helios 1B rocket 3.7 01:23:04 10° N 01:26:43 31° WNW 01:29:11 17° WSW
STARLINK-1254 3.5 01:23:12 10° WNW 01:27:23 86° SSW 01:31:32 10° ESE
ADEOS II 3.8 01:24:25 10° NE 01:28:44 25° E 01:33:01 10° SSE
ATLAS 2AS CENTAUR R/B 3.2 01:23:17 14° SW 01:30:29 75° NW 01:38:23 10° NE
STARLINK-1231 3.5 01:28:13 10° WNW 01:32:23 83° SSW 01:36:32 10° ESE
IKONOS-2 4.5 01:29:56 17° SSE 01:33:15 89° WSW 01:37:34 10° NNW
CZ-4C R/B 3.5 01:30:46 21° S 01:33:33 71° WSW 01:37:55 10° NNW
STARLINK-1228 3.5 01:30:54 10° W 01:34:01 36° SSW 01:37:07 10° SE
STARLINK-1246 3.9 01:30:24 10° W 01:34:33 69° N 01:38:42 10° E
STARLINK-1234 3.4 01:32:20 10° W 01:35:14 35° SSW 01:37:02 18° SSE
Resurs 1-4 Rocket 2.4 01:30:50 10° NNE 01:36:07 65° ESE 01:40:11 17° S
STARLINK-1212 3.1 01:33:40 10° W 01:36:38 42° SSW 01:39:36 10° SE
DELTA 2 DEB (DPAF) 4.5 01:34:10 22° SSW 01:36:44 48° W 01:41:04 10° NNW
STARLINK-1105 3.1 01:34:09 10° W 01:37:06 42° SSW 01:40:03 10° SE
Cosmos 1943 Rocket 4.2 01:33:02 10° W 01:37:19 22° NW 01:41:38 10° NNE
STARLINK-1232 3.5 01:33:11 10° WNW 01:37:22 80° SSW 01:41:30 10° ESE
STARLINK-1209 3.5 01:34:37 10° W 01:37:30 33° SSW 01:38:42 24° S
STARLINK-1247 3.2 01:35:03 10° W 01:38:02 42° SSW 01:41:00 10° SE
STARLINK-1227 3.2 01:35:31 10° W 01:38:28 41° SSW 01:41:25 10° SE
Meteor 2-5 Rocket 4.3 01:35:17 19° SW 01:39:01 47° WNW 01:44:26 10° N
STARLINK-1226 3.2 01:36:22 10° W 01:39:20 41° SSW 01:42:18 10° SE
STARLINK-1224 3.9 01:35:24 10° W 01:39:32 70° N 01:43:41 10° E
STARLINK-1215 3.2 01:37:19 10° W 01:40:17 40° SSW 01:43:14 10° SE
STARLINK-52 4.0 01:39:41 26° S 01:40:35 31° SSE 01:43:28 10° E
USA 81 4.4 01:36:19 14° SSE 01:40:49 61° E 01:46:02 10° NNE
STARLINK-1217 3.2 01:39:05 10° W 01:42:02 39° SSW 01:44:58 10° SE
STARLINK-1208 3.5 01:38:09 10° WNW 01:42:18 77° SSW 01:46:27 10° ESE
STARLINK-1229 3.3 01:40:01 10° W 01:42:57 39° SSW 01:45:54 10° SE
NPP 3.9 01:38:09 10° NNE 01:43:33 64° ESE 01:47:57 15° S
STARLINK-1270 3.3 01:40:52 10° W 01:43:49 38° SSW 01:46:45 10° SE
STARLINK-1225 3.9 01:40:24 10° W 01:44:32 70° N 01:48:41 10° E
STARLINK-1189 3.3 01:42:43 10° W 01:45:39 37° SSW 01:48:34 10° SE
STARLINK-1188 3.3 01:43:36 10° W 01:46:32 37° SSW 01:49:27 10° SE
STARLINK-1235 3.6 01:44:22 10° W 01:47:08 30° SSW 01:49:55 10° SSE
STARLINK-1271 3.5 01:43:09 10° WNW 01:47:18 74° SSW 01:51:26 10° ESE
STARLINK-1187 3.5 01:44:45 10° W 01:47:35 33° SSW 01:50:25 10° SE
Cosmos 1898 Rocket 3.9 01:42:23 10° NNW 01:47:44 68° ENE 01:53:02 10° SE
Cosmos 2058 Rocket 4.3 01:45:06 10° NNW 01:48:49 27° W 01:51:01 18° SW
STARLINK-1191 3.4 01:46:06 10° W 01:48:58 35° SSW 01:51:51 10° SE
Lacrosse 4 Rocket 3.3 01:45:16 10° NNW 01:49:19 34° NE 01:53:15 10° ESE
STARLINK-1230 3.9 01:45:22 10° WNW 01:49:32 71° N 01:53:40 10° E
STARLINK-1221 3.4 01:46:58 10° W 01:49:50 35° SSW 01:52:42 10° SE
Starlink 7 placeholder 1.5 01:49:43 60° SSW 01:49:56 70° SSE 01:51:54 10° ENE
STARLINK-1222 3.4 01:47:52 10° W 01:50:44 34° SSW 01:53:35 10° SE
STARLINK-1214 3.4 01:48:47 10° W 01:51:38 34° SSW 01:54:29 10° SE
STARLINK-1154 3.5 01:48:08 10° WNW 01:52:16 70° SSW 01:56:24 10° ESE
SJ 16-02 1.4 01:48:54 10° NNW 01:53:22 81° ENE 01:57:47 10° SSE
STARLINK-1243 3.9 01:50:22 10° WNW 01:54:30 72° N 01:58:40 10° E
CZ-4C R/B 3.9 01:51:13 10° SSE 01:54:58 21° ESE 01:59:10 10° ENE
Cosmos 2084 3.9 01:52:18 19° SSW 01:55:14 52° SE 01:59:36 10° NE
SL-14 R/B 4.3 01:54:05 18° SW 01:56:21 32° WNW 01:59:52 10° N
SL-08 ROCKET BODY 4.4 01:52:05 17° SSW 01:56:39 72° WNW 02:02:31 10° N
STARLINK-1197 3.5 01:53:07 10° WNW 01:57:15 67° SSW 02:01:22 10° ESE
Cosmos 1937 Rocket 4.1 01:52:47 10° NNW 01:57:59 61° ENE 02:03:12 10° SE
Cosmos 1300 4.1 01:55:11 10° NW 01:58:17 24° W 02:00:01 17° SW
STARLINK-1236 3.8 01:55:21 10° WNW 01:59:30 73° N 02:03:39 10° E
COSMOS 2455 3.3 01:54:47 13° WSW 02:00:06 56° NW 02:06:03 10° NNE
Meteor 2-10 Rocket 3.5 01:54:57 10° NNW 02:00:23 87° WSW 02:05:33 10° S
STARLINK-1198 3.6 01:58:04 10° WNW 02:02:12 64° SSW 02:06:17 10° SE
Cosmos 921 Rocket 3.3 02:00:21 18° SW 02:03:20 55° WNW 02:07:36 10° NNE
STARLINK-1199 3.6 02:03:05 10° WNW 02:07:11 60° SSW 02:11:17 10° SE
Cosmos 1709 Rocket 4.0 02:01:48 12° S 02:07:25 84° E 02:13:36 10° N
STARLINK-1269 3.8 02:05:18 10° WNW 02:09:28 76° N 02:13:37 10° E
Cosmos 1626 Rocket 4.0 02:06:42 17° SW 02:09:47 49° WNW 02:14:01 10° N
Cosmos 1626 3.8 02:09:03 13° WSW 02:11:22 21° WNW 02:14:19 10° NNW
STARLINK-60 2.8 02:08:52 15° WSW 02:11:26 83° SSE 02:14:39 10° ENE
STARLINK-1210 3.6 02:08:04 10° WNW 02:12:08 57° SSW 02:16:12 10° SE
STARLINK-1200 3.8 02:10:18 10° WNW 02:14:28 78° NNE 02:18:37 10° E
Cosmos 2219 3.4 02:09:48 10° NW 02:15:16 49° WSW 02:20:40 10° S
STARLINK-1320 4.5 02:14:52 16° S 02:16:28 23° SE 02:19:00 10° E
STARLINK-1322 4.5 02:15:11 16° S 02:16:48 23° SE 02:19:21 10° E
STARLINK-1219 3.7 02:13:03 10° WNW 02:17:06 54° SSW 02:21:09 10° SE
STARLINK-1324 4.4 02:15:32 15° S 02:17:09 23° SE 02:19:42 10° E
STARLINK-1294 4.4 02:15:47 15° S 02:17:26 23° SE 02:20:01 10° E
STARLINK-1261 4.4 02:16:09 15° S 02:17:49 23° SE 02:20:22 10° E
STARLINK-1325 4.4 02:16:30 15° S 02:18:11 23° SE 02:20:44 10° E
STARLINK-1333 4.4 02:16:48 15° S 02:18:28 23° SE 02:21:02 10° E
STARLINK-1334 4.4 02:17:07 15° S 02:18:49 24° SE 02:21:23 10° E
STARLINK-1326 4.4 02:17:28 15° S 02:19:09 24° SE 02:21:45 10° E
STARLINK-1192 3.7 02:15:17 10° WNW 02:19:27 80° NNE 02:23:37 10° E
STARLINK-1323 4.4 02:17:47 15° S 02:19:29 24° SE 02:22:05 10° E
STARLINK-1349 4.4 02:18:06 15° S 02:19:49 24° SE 02:22:25 10° E
STARLINK-1336 4.4 02:18:28 15° S 02:20:11 24° SE 02:22:47 10° E
Cosmos 1980 Rocket 4.1 02:16:10 10° SSE 02:20:28 23° ESE 02:24:48 10° NE
STARLINK-1331 4.4 02:18:45 15° S 02:20:29 24° SE 02:23:06 10° E
STARLINK-1344 4.4 02:19:05 15° S 02:20:50 24° SE 02:23:26 10° E
STARLINK-1343 4.4 02:19:25 15° S 02:21:10 24° SE 02:23:47 10° E
STARLINK-1346 4.4 02:19:43 15° S 02:21:31 25° SE 02:24:11 10° E
STARLINK-1328 4.3 02:20:05 15° S 02:21:52 25° SE 02:24:29 10° E
STARLINK-1211 3.7 02:18:01 10° WNW 02:22:03 51° SSW 02:26:04 10° SE
STARLINK-1354 4.3 02:20:22 15° SSW 02:22:10 25° SE 02:24:48 10° E
STARLINK-1347 4.3 02:20:44 15° SSW 02:22:32 25° SE 02:25:10 10° E
STARLINK-1357 4.3 02:21:01 15° SSW 02:22:50 25° SE 02:25:29 10° E
STARLINK-1335 4.3 02:21:22 15° SSW 02:23:11 25° SE 02:25:50 10° E
Cosmos 1328 4.1 02:19:22 10° S 02:23:19 65° E 02:27:17 10° NNE
STARLINK-1327 4.3 02:21:40 15° SSW 02:23:31 25° SE 02:26:09 10° E
STARLINK-1340 4.3 02:22:01 15° SSW 02:23:52 25° SE 02:26:31 10° E
STARLINK-1356 4.3 02:22:21 15° SSW 02:24:12 25° SE 02:26:51 10° E
ERBS 3.8 02:21:10 10° NW 02:24:20 39° NNE 02:27:31 10° E
STARLINK-1244 3.7 02:20:15 10° WNW 02:24:25 82° NNE 02:28:35 10° ESE
STARLINK-1345 4.3 02:22:41 15° SSW 02:24:33 26° SE 02:27:12 10° E
STARLINK-1355 4.3 02:22:59 15° SSW 02:24:52 26° SE 02:27:33 10° E
Cosmos 192 4.4 02:20:35 14° SSW 02:24:54 85° WNW 02:29:55 10° NNE
STARLINK-1321 4.3 02:23:18 15° SSW 02:25:12 26° SE 02:27:52 10° E
STARLINK-1358 4.3 02:23:39 15° SSW 02:25:34 26° SE 02:28:14 10° E
STARLINK-1341 4.5 02:23:29 14° SSW 02:25:47 27° SE 02:28:49 10° E
ERS-2 2.9 02:22:17 10° SSE 02:25:52 54° ENE 02:29:29 10° N
STARLINK-1332 4.2 02:23:57 15° SSW 02:25:52 26° SE 02:28:33 10° E
STARLINK-1348 4.2 02:24:18 15° SSW 02:26:14 26° SE 02:28:55 10° E
STARLINK-1330 4.2 02:24:36 15° SSW 02:26:32 26° SE 02:29:14 10° E
STARLINK-1363 4.2 02:24:56 15° SSW 02:26:52 27° SE 02:29:34 10° E
STARLINK-1245 3.8 02:23:01 10° WNW 02:27:02 48° SSW 02:31:01 10° SE
STARLINK-1337 4.2 02:25:15 15° SSW 02:27:13 27° SE 02:29:55 10° E
STARLINK-1342 4.2 02:25:35 15° SSW 02:27:33 27° SE 02:30:15 10° E
AQUA 3.9 02:23:03 10° N 02:27:48 67° WNW 02:32:11 12° SSW
STARLINK-1374 4.4 02:25:26 14° SSW 02:27:49 28° SE 02:30:53 10° E
STARLINK-1364 4.2 02:25:55 15° SSW 02:27:54 27° SE 02:30:36 10° E
Cosmos 1812 Rocket 4.4 02:23:56 10° NNW 02:28:01 35° W 02:31:37 12° SSW
STARLINK-1376 4.2 02:26:15 15° SSW 02:28:15 27° SE 02:30:58 10° E
STARLINK-1360 4.2 02:26:30 15° SSW 02:28:31 27° SE 02:31:14 10° E
STARLINK-1361 4.2 02:26:56 15° SSW 02:28:57 27° SE 02:31:40 10° E
STARLINK-1367 4.2 02:27:10 14° SSW 02:29:13 28° SE 02:31:59 10° E
STARLINK-1138 3.7 02:25:14 10° WNW 02:29:24 84° NNE 02:33:34 10° ESE
STARLINK-1366 4.2 02:27:33 14° SSW 02:29:35 28° SE 02:32:19 10° E
STARLINK-1339 4.4 02:27:27 14° SSW 02:29:53 29° SE 02:32:59 10° E
SL-4 R/B 2.3 02:25:09 10° WSW 02:29:59 79° SSE 02:34:38 10° E
CZ-4B R/B 3.7 02:25:14 10° N 02:30:18 64° WNW 02:35:12 11° SSW
Cosmos 2297 Rocket 2.5 02:25:24 10° NW 02:30:47 46° WSW 02:36:09 10° S
STARLINK-1233 3.9 02:28:00 10° WNW 02:31:58 45° SSW 02:35:56 10° SE
STARLINK-1377 4.4 02:29:28 14° SSW 02:31:59 30° SE 02:35:05 10° E
STARLINK-1203 3.7 02:28:03 10° WNW 02:32:16 86° NNE 02:36:30 10° ESE
STARLINK-1353 4.3 02:31:17 13° SSW 02:33:50 30° SE 02:36:56 10° E
STARLINK-1143 3.6 02:30:13 10° WNW 02:34:23 87° NNE 02:38:33 10° ESE
Cosmos 2082 3.7 02:28:55 10° NNW 02:34:36 78° WSW 02:40:14 10° SSE
STARLINK-1375 4.3 02:33:04 13° SSW 02:35:41 31° SE 02:38:49 10° E
Cosmos 990 Rocket 4.2 02:31:32 10° NNW 02:36:40 52° WSW 02:41:43 10° S
STARLINK-1204 3.9 02:33:01 10° WNW 02:36:57 42° SSW 02:40:52 10° SE
CBERS-1 4.1 02:32:02 10° NNE 02:37:11 79° WNW 02:42:18 10° SSW
ATLAS CENTAUR R/B 2.7 02:33:53 10° W 02:37:47 32° NW 02:41:27 10° NNE
STARLINK-1350 4.2 02:35:22 13° SSW 02:38:04 32° SSE 02:41:13 10° E
FALCON 9 DEB 3.3 02:35:24 13° SW 02:38:24 57° SSE 02:41:49 10° ENE
STARLINK-1241 3.6 02:35:12 10° WNW 02:39:22 90° NNE 02:43:32 10° ESE
STARLINK-29 2.9 02:36:59 11° WSW 02:40:05 77° SSE 02:43:17 10° ENE
STARLINK-1352 4.2 02:37:40 12° SSW 02:40:29 34° SSE 02:43:42 10° E
Cosmos 1455 2.9 02:37:22 10° NNW 02:40:48 35° W 02:44:13 10° SSW
STARLINK-1238 4.0 02:37:59 10° WNW 02:41:52 40° SSW 02:45:46 10° SE
STARLINK-1368 4.1 02:39:45 12° SSW 02:42:38 35° SSE 02:45:53 10° E
Cosmos 1825 Rocket 3.6 02:38:25 10° SSW 02:42:43 71° WNW 02:47:04 10° N
STARLINK-1239 3.6 02:40:11 10° WNW 02:44:21 88° SSW 02:48:30 10° ESE
STARLINK-1369 4.1 02:41:37 12° SSW 02:44:33 36° SSE 02:47:47 10° E
ATLAS CENTAUR R/B 3.0 02:42:40 10° W 02:45:29 28° SW 02:50:59 10° SSE
Meteor 1-28 Rocket 3.3 02:41:55 10° SSE 02:45:41 82° ENE 02:49:28 10° NNW
SL-16 R/B 3.5 02:41:06 10° SSW 02:46:15 27° W 02:51:27 10° NW
Cosmos 2263 Rocket 3.7 02:41:05 10° NNW 02:46:27 42° NE 02:51:44 10° ESE
STARLINK-1201 4.1 02:43:00 10° WNW 02:46:51 37° SW 02:50:41 10° SSE
STARLINK-1372 4.0 02:43:58 11° SW 02:47:00 37° SSE 02:50:18 10° E
Cosmos 372 Rocket 4.3 02:43:13 10° NNW 02:48:21 72° ENE 02:53:30 10° SSE
Cosmos 2074 Rocket 4.3 02:42:30 10° S 02:48:46 72° E 02:55:04 10° NNE
GP-B 3.7 02:44:51 10° N 02:49:04 43° W 02:53:16 10° SSW
STARLINK-1378 4.0 02:46:05 11° SW 02:49:13 38° SSE 02:52:32 10° E
STARLINK-1240 3.6 02:45:10 10° WNW 02:49:20 85° SSW 02:53:29 10° ESE
STARLINK-1329 4.0 02:46:35 11° SW 02:49:45 39° SSE 02:53:04 10° E
IRS-1D 3.8 02:44:45 10° N 02:50:04 65° WNW 02:55:18 10° SSW
STARLINK-1365 3.9 02:47:17 11° SW 02:50:28 40° SSE 02:53:48 10° ENE
Cosmos 841 Rocket 4.1 02:45:36 10° S 02:50:43 55° ESE 02:55:50 10° NNE
STARLINK-1379 4.0 02:48:13 11° SW 02:51:26 40° SSE 02:54:46 10° E
STARLINK-1206 4.2 02:48:00 10° W 02:51:48 35° SW 02:55:35 10° SSE
STARLINK-1362 3.9 02:48:47 11° SW 02:52:01 40° SSE 02:55:22 10° ENE
Cosmos-2242 3.5 02:48:20 10° NNW 02:52:22 41° W 02:56:21 10° SSW
Cosmos 1400 Rocket 2.9 02:49:29 10° NNW 02:53:37 81° WSW 02:57:44 10° S
ATLAS 5 CENTAUR R/B 3.8 02:52:46 10° NNW 02:53:44 12° N 02:54:49 10° NNE
STARLINK-1216 3.6 02:50:09 10° WNW 02:54:18 81° SSW 02:58:27 10° ESE
STARLINK-1373 3.9 02:50:59 10° SW 02:54:19 41° SSE 02:57:41 10° ENE
Cosmos 2221 3.5 02:50:08 10° N 02:54:22 52° ENE 02:58:36 10° SSE
ATLAS 3B R/B 4.2 02:51:50 10° WNW 02:55:16 14° WSW 02:58:45 10° SW
COBE Rocket 4.0 02:50:51 10° S 02:55:47 80° WSW 03:00:54 10° NNW
STARLINK-1390 3.9 02:53:00 10° SW 02:56:22 42° SSE 02:59:45 10° ENE
STARLINK-1205 4.3 02:53:00 10° W 02:56:45 33° SW 03:00:28 10° SSE
STARLINK-1237 3.6 02:55:08 10° WNW 02:59:18 78° SSW 03:03:26 10° ESE
RESURS DK-1 4.0 02:56:13 10° W 02:59:41 25° NW 03:03:09 10° NNE
Cosmos 2184 Rocket 4.1 02:54:06 10° S 03:00:16 83° E 03:06:29 10° NNE
SL-08 R/B 3.5 02:56:46 10° S 03:01:19 50° W 03:05:52 10° NNW
CZ-4C R/B 3.2 02:58:02 10° SSE 03:01:38 79° ENE 03:05:18 10° NNW
STARLINK-1218 4.4 02:58:00 10° W 03:01:41 31° SW 03:05:21 10° SSE
STARLINK-1202 3.6 03:00:07 10° WNW 03:04:17 75° SSW 03:08:25 10° ESE
IRS-P3 4.3 03:00:22 10° N 03:05:41 67° WNW 03:10:57 10° SSW
CZ-2D R/B 3.3 03:01:39 10° N 03:06:08 29° WNW 03:10:34 10° WSW
Cosmos 2227 Rocket 3.0 03:01:17 10° NW 03:06:10 30° WSW 03:11:01 10° SSW
Cosmos 1703 3.9 03:02:37 10° SW 03:06:23 41° WNW 03:10:10 10° N
STARLINK-1254 4.5 03:03:02 10° W 03:06:38 29° SW 03:10:14 10° SSE
ADEOS II 2.4 03:03:37 10° N 03:08:48 58° WNW 03:13:56 10° SSW
Cosmos 1763 Rocket 3.6 03:04:24 10° SW 03:09:29 65° WNW 03:14:34 10° NNE
Cosmos 2150 Rocket 4.1 03:05:09 10° NNW 03:10:25 83° ENE 03:15:34 10° SSE
Cosmos 1697 Rocket 2.8 03:05:52 10° SSW 03:11:33 87° ESE 03:17:16 10° NNE
